TimeEST,TemperatureF,Dew PointF,Humidity,Sea Level PressureIn,VisibilityMPH,Wind Direction,Wind SpeedMPH,Gust SpeedMPH,PrecipitationIn,Events,Conditions,WindDirDegrees,DateUTC
12:51 AM,12.9,-0.9,54,30.35,10.0,West,8.1,-,N/A,,Scattered Clouds,280,2013-01-23 05:51:00
1:51 AM,12.0,-0.0,59,30.34,10.0,WNW,6.9,-,N/A,,Scattered Clouds,290,2013-01-23 06:51:00
2:51 AM,12.9,-0.0,56,30.36,10.0,West,8.1,-,N/A,,Mostly Cloudy,280,2013-01-23 07:51:00
3:51 AM,12.9,-0.0,56,30.35,10.0,West,9.2,-,N/A,,Overcast,280,2013-01-23 08:51:00
4:51 AM,12.0,-0.9,56,30.35,10.0,West,9.2,-,N/A,,Clear,270,2013-01-23 09:51:00
5:51 AM,10.9,-0.9,59,30.35,10.0,West,10.4,-,N/A,,Clear,270,2013-01-23 10:51:00
6:51 AM,10.9,-2.0,56,30.36,10.0,West,6.9,-,N/A,,Scattered Clouds,280,2013-01-23 11:51:00
7:51 AM,12.0,-0.9,56,30.36,10.0,West,6.9,-,N/A,,Overcast,260,2013-01-23 12:51:00
8:51 AM,12.9,-0.9,54,30.35,10.0,West,8.1,-,N/A,,Overcast,270,2013-01-23 13:51:00
9:51 AM,15.1,-0.0,51,30.35,10.0,West,9.2,-,N/A,,Overcast,270,2013-01-23 14:51:00
10:51 AM,17.1,1.0,50,30.34,10.0,WSW,9.2,-,N/A,,Overcast,250,2013-01-23 15:51:00
11:51 AM,18.0,-0.0,45,30.32,10.0,SW,11.5,-,N/A,,Overcast,230,2013-01-23 16:51:00
12:51 PM,19.9,-0.0,42,30.27,10.0,WSW,11.5,19.6,N/A,,Overcast,240,2013-01-23 17:51:00
1:51 PM,21.0,-2.0,36,30.24,10.0,WSW,12.7,-,N/A,,Overcast,240,2013-01-23 18:51:00
2:51 PM,21.0,-2.0,36,30.22,10.0,WSW,12.7,-,N/A,,Overcast,240,2013-01-23 19:51:00
3:51 PM,21.2,-0.4,39,30.16,10.0,SW,13.8,-,N/A,,Overcast,230,2013-01-23 20:51:00
4:51 PM,21.0,1.0,42,30.18,10.0,SW,10.4,-,N/A,,Overcast,220,2013-01-23 21:51:00
5:51 PM,19.9,9.0,62,30.17,9.0,WSW,12.7,-,0.00,Snow,Light Snow,240,2013-01-23 22:51:00
6:51 PM,19.0,12.0,74,30.17,6.0,SW,11.5,-,0.00,Snow,Light Snow,230,2013-01-23 23:51:00
7:27 PM,19.4,12.2,74,30.12,2.0,SW,10.4,-,0.00,Snow,Light Snow,230,2013-01-24 00:27:00
7:51 PM,19.0,14.0,81,30.16,2.0,SW,6.9,-,0.00,Snow,Light Snow,230,2013-01-24 00:51:00
7:58 PM,17.6,14.0,86,30.11,3.0,WSW,4.6,-,0.01,Snow,Light Snow,250,2013-01-24 00:58:00
8:24 PM,19.4,14.0,80,30.11,2.0,SW,5.8,-,0.01,Snow,Light Snow,220,2013-01-24 01:24:00
8:51 PM,19.0,14.0,81,30.14,2.0,WSW,4.6,-,0.01,Snow,Light Snow,240,2013-01-24 01:51:00
8:58 PM,19.4,14.0,80,30.09,4.0,SW,5.8,-,0.00,Snow,Light Snow,230,2013-01-24 01:58:00
9:51 PM,19.0,14.0,81,30.12,7.0,WSW,5.8,-,0.00,Snow,Light Snow,250,2013-01-24 02:51:00
10:51 PM,19.0,14.0,81,30.12,3.0,WSW,8.1,-,0.00,Snow,Light Snow,250,2013-01-24 03:51:00
11:11 PM,19.4,15.8,86,30.07,2.0,West,5.8,-,0.00,Snow,Light Snow,260,2013-01-24 04:11:00
11:30 PM,19.4,15.8,86,30.07,2.0,West,6.9,-,0.00,Snow,Light Snow,260,2013-01-24 04:30:00
11:47 PM,19.4,15.8,86,30.07,1.5,WSW,6.9,-,0.00,Snow,Light Snow,250,2013-01-24 04:47:00
11:51 PM,19.0,15.1,85,30.11,1.5,WSW,5.8,-,0.00,Snow,Light Snow,250,2013-01-24 04:51:00